Lid_Strength_Index
-1 -1 -0 3 11 10 14 11 9 9 8 5 5 6 7 7 9 12 1 0 -0 -0 -1 -1 -1 -1 -1 -1 -2 -2 -2 -1 -1 -1 -1 -1 -1 -1 -1 -1 -1 -1 -2 -1 -1 -1 -1 -1 -1
-0 0 2 6 12 16 12 8 10 8 6 5 5 5 6 8 4 4 3 0 -0 -0 -1 -1 -1 -1 -1 -1 -2 -2 -2 -2 -1 -1 -2 -2 -2 -2 -2 -2 -1 -1 -1 -1 -1 -1 -1 -1 -1
-0 0 6 9 11 15 14 8 7 6 5 5 6 5 6 7 3 3 1 -0 -1 -1 -1 -1 -1 -1 -1 -1 -2 -2 -2 -1 -1 -1 -1 -1 -2 -1 -1 -1 -1 -1 -1 -1 -1 -1 -1 -1 -1
2 3 5 11 14 9 9 7 6 6 5 5 5 7 4 2 3 1 -0 -0 0 -0 -1 -1 -2 -2 -2 -2 -2 -2 -1 -1 -2 -1 -2 -1 -2 -1 -1 -1 -1 -1 -1 -1 -1 -1 -1 -1 -1
2 5 11 12 12 8 7 6 6 6 6 6 6 8 7 3 1 0 0 0 0 -0 -1 -1 -2 -2 -2 -2 -2 -1 -1 -1 -1 -1 -1 -1 -1 -1 -1 -1 -1 -1 -1 -1 -1 -1 -1 -1 -1
7 5 11 15 11 8 6 5 5 6 6 5 6 7 6 2 2 1 0 0 -0 -0 -1 -1 -2 -2 -2 -2 -1 -1 -1 -1 -1 -1 -1 -1 -1 -1 -1 -1 -1 -1 -1 -1 -1 -1 -1 -1 -1
7 8 10 11 9 9 7 4 6 6 6 6 4 8 5 3 1 1 0 -0 -0 -1 -1 -1 -1 -2 -1 -2 -2 -2 -1 -1 -1 -1 -1 -1 -1 -1 -1 -1 -1 -1 -1 -1 -1 -1 -1 -1 -1
5 7 10 8 9 11 6 5 4 5 6 3 3 7 7 3 1 1 0 0 0 -1 -1 -1 -2 -2 -2 -1 -1 -1 -1 -1 -1 -1 -1 -1 -1 -1 -1 -2 -1 -1 -1 -1 -1 -1 -1 -1 -1
3 9 10 9 9 8 5 6 4 3 5 4 4 4 3 2 1 2 2 1 1 0 -0 -1 -1 -1 -2 -2 -1 -1 -1 -1 -1 -1 -1 -1 -2 -1 -1 -2 -1 -1 -1 -1 -1 -1 -1 -1 -1
6 9 10 6 7 7 5 5 5 5 5 5 5 3 2 2 2 3 3 3 2 1 0 -1 -1 -1 -1 -1 -2 -2 -2 -2 -2 -1 -2 -1 -2 -2 -1 -2 -2 -1 -1 -1 -2 -2 -2 -2 -1
6 11 8 5 5 6 5 5 4 5 7 5 5 4 3 3 3 3 3 2 1 0 0 -0 -1 -1 -1 -1 -1 -1 -1 -1 -1 -2 -2 -2 -2 -2 -2 -1 -1 -2 -2 -1 -2 -1 -1 -1 -1
7 6 5 5 5 5 6 5 5 5 4 3 3 3 3 3 3 3 3 2 1 1 0 -0 -1 -1 -2 -1 -1 -1 -1 -1 -1 -1 -2 -2 -1 -1 -1 -1 -1 -2 -2 -2 -1 -1 -2 -1 -1
6 6 5 5 5 5 4 6 6 5 3 3 3 3 3 3 3 2 1 1 1 1 0 -0 -1 -1 -1 -2 -1 -1 -1 -1 -1 -1 -2 -1 -1 -1 -1 -1 -1 -1 -2 -1 -1 -1 -1 -1 -1
5 5 5 5 5 4 5 6 5 5 3 3 3 4 3 3 3 2 2 2 1 1 0 -0 -1 -1 -1 -1 -2 -1 -1 -2 -1 -1 -2 -2 -1 -2 -1 -1 -0 -1 -1 -1 -1 -1 -1 -1 -1
5 7 6 5 5 5 4 7 6 4 4 4 4 4 3 3 2 2 2 1 1 1 0 -0 -0 -1 -1 -1 -1 -1 -1 -1 -1 -1 -2 -2 -2 -2 -2 -0 -0 -1 -2 -2 -2 -2 -2 0 -1
7 7 9 6 5 5 5 10 6 4 4 5 4 4 4 3 2 2 1 1 1 0 0 -0 -0 -1 -1 -1 -1 -1 -1 -1 -1 -1 -2 -2 -2 -2 -2 -1 -0 -2 -1 -1 -1 -1 0 -0 -0
7 10 9 8 5 5 6 11 8 4 5 5 5 4 4 3 2 2 1 1 1 0 0 0 -0 -0 -1 -1 -1 -1 -2 -1 -1 -1 -1 -2 -2 -2 -1 -0 -0 -2 -1 -0 -0 -0 -0 0 -0
9 9 8 9 6 6 7 8 8 5 5 5 5 4 4 4 3 2 1 1 1 0 -0 -0 -0 -1 -1 -1 -1 -1 -1 -1 -1 -1 -1 -2 -2 -2 -1 -1 -1 -2 -0 -0 -1 -1 -0 -0 -0
6 7 8 7 6 7 7 8 7 5 5 5 5 5 4 4 2 2 1 1 1 0 0 0 0 -0 -0 0 1 0 1 -0 -0 -1 -2 -2 -2 -2 -2 -1 -1 -1 -0 -1 -1 -0 -0 1 -1
7 7 7 6 6 6 7 7 6 5 5 5 5 5 4 4 3 2 2 1 1 1 1 0 0 0 -0 0 -0 -0 -0 -0 -1 -1 -2 -2 -2 -2 -1 -1 -1 -0 0 -1 -1 -1 1 0 -1
8 8 7 8 6 6 7 8 7 5 4 4 4 4 4 4 4 3 2 2 1 1 1 1 0 0 -0 -0 -0 -0 -1 -0 0 -0 -0 -1 -1 -2 -2 -2 -1 -1 -1 0 -0 -0 -0 2 -0
8 6 6 7 8 11 7 12 8 6 6 5 5 4 4 4 3 3 2 2 2 1 1 0 0 0 0 -0 -0 0 1 1 1 0 -0 -1 -2 -1 -1 -2 -1 -1 -1 -1 -0 -1 -0 0 1
7 5 6 7 7 8 8 10 8 6 7 6 5 4 4 3 3 3 2 2 1 1 1 1 1 0 0 0 0 1 1 0 0 0 -1 -1 -1 -1 -1 -2 -1 -1 -1 -1 -1 -1 -1 -0 1
5 6 6 7 8 11 9 9 9 7 7 6 5 4 4 3 3 3 2 2 2 1 1 1 1 1 0 0 0 0 1 1 1 0 1 0 -0 -0 -1 -1 -1 -1 -1 -1 -1 -1 -1 -0 -1
6 7 11 11 12 12 8 9 8 6 5 5 5 4 4 3 3 3 3 2 2 2 1 1 1 1 1 1 1 1 1 0 1 0 1 0 0 0 -0 -0 -1 -0 -1 -1 -1 -1 -1 -0 0
7 7 10 13 12 11 8 10 8 5 4 4 3 3 3 3 3 3 3 2 2 2 1 1 1 2 1 1 1 0 0 1 1 0 0 0 0 -0 -1 -0 -1 -1 -1 -1 -1 -0 -0 -1 -0
7 9 6 9 9 10 9 8 6 5 5 4 4 4 4 3 3 3 2 2 2 2 1 1 1 1 1 1 1 1 1 0 1 0 -0 0 -1 -0 -1 -1 -0 -1 -1 -1 -1 0 -0 -0 -0
6 5 9 9 12 12 10 9 9 7 6 5 4 4 3 3 3 3 3 2 2 2 1 1 1 1 1 1 1 1 1 0 0 0 0 0 -0 -0 -1 -0 -0 -0 -0 -1 -0 -0 -0 -0 0
8 8 7 8 9 11 12 10 5 5 5 5 4 4 3 3 3 3 2 2 2 1 1 1 1 1 1 1 1 1 1 1 0 1 0 0 -0 -0 -0 -0 -0 -0 -0 -0 -0 -0 -0 0 0
6 7 7 10 10 9 9 9 5 5 4 4 4 3 3 3 2 2 2 2 2 2 2 1 1 1 1 1 1 1 1 1 1 1 0 -0 0 -0 -0 -0 0 0 -0 -0 0 0 0 0 1